User: anonymous   Login
Location: Unspecified
(0.0000°N, 0.0000°E)
Time: 21:16:55
(UTC+00:00)
Language:

TATIANA - Orbit

View from above orbital plane
View from above orbital plane
View from above satellite
View from above satellite

Ground track
Ground track

The orbit data is extracted from the following two-line orbital elements,

1 28523U 05002C   17141.75266822 +.00000046 +00000-0 +25082-4 0  9990
2 28523 082.9518 030.5641 0039454 063.6357 296.8848 13.87428978624429
Epoch (UTC): 21 May 2017 18:03:50
Eccentricity: 0.0039454
inclination: 82.9518°
perigee height: 909 km
apogee height: 966 km
right ascension of ascending node: 30.5641°
argument of perigee: 63.6357°
revolutions per day: 13.87428978
mean anomaly at epoch: 296.8848°
orbit number at epoch: 62442

The dashed part of the orbit path shows where the satellite is in the earth's shadow,  

DLR